Printer-friendly version

IAU Minor Planet Center

Minor Planet Center

187P/LINEAR

Orbital Elements

The following orbital elements are taken from MPC 62583:
187P/LINEAR
Epoch 2008 Oct. 21.0 TT = JDT 2454760.5
T 2008 Oct. 6.5665 TT                                   MPC
q   3.693134             (2000.0)            P               Q
n   0.1048993      Peri.  131.9916      -0.4187818      +0.8810092
a   4.452676       Node   112.0014      -0.8874589      -0.3456969
e   0.170581       Incl.   13.7325      -0.1924540      -0.3229806
P   9.40
From 87 observations 1999-2008, mean residual 0".7.
Elements are also available for the current standard epoch:
187P/LINEAR
Epoch 2009 June 18.0 TT = JDT 2455000.5
T 2008 Oct. 7.9051 TT                                   MPC
q   3.693676             (2000.0)            P               Q
n   0.1047091      Peri.  132.1825      -0.4157997      +0.8824303
a   4.458064       Node   112.0047      -0.8886188      -0.3426999
e   0.171462       Incl.   13.7303      -0.1935644      -0.3222942
P   9.41
An explanation of the orbital elements is available.

These orbital elements are also available in forms suitable for loading into a number of popular planetarium-type software programs.


Ephemeris

The following ephemeris is at intervals of five days. A daily ephemeris covering the same time interval is also available.

Personalized ephemerides for this (and other) objects may be generated using the Minor Planet & Comet Ephemeris Service.

Recent magnitude estimates for this comet (as reported to the ICQ) may be available.

Date    TT    R. A. (2000) Decl.     Delta      r     Elong.  Phase   m1    m2

WARNING!

This comet gets close to the sun during the period covered in the ephemeris below. Observers are warned to be wary of observing comets near the sun. NEVER point any kind of optical instrument at the sun--instant blindness will be the probable result.

2009 06 08 19 17.16 -18 31.0 2.895 3.799 148.7 8.0 17.1 2009 06 13 19 14.81 -18 46.0 2.864 3.803 154.1 6.7 17.1 2009 06 18 19 12.15 -19 02.1 2.839 3.807 159.5 5.4 17.1 2009 06 23 19 09.24 -19 19.1 2.821 3.812 164.9 4.0 17.1 2009 06 28 19 06.13 -19 36.8 2.810 3.816 170.3 2.6 17.1 2009 07 03 19 02.90 -19 55.0 2.806 3.821 175.4 1.2 17.1 2009 07 08 18 59.63 -20 13.4 2.810 3.825 176.9 0.8 17.1 2009 07 13 18 56.38 -20 31.9 2.820 3.830 172.2 2.1 17.1 2009 07 18 18 53.23 -20 50.1 2.838 3.834 166.9 3.4 17.1 2009 07 23 18 50.24 -21 08.1 2.862 3.839 161.5 4.8 17.1 2009 07 28 18 47.50 -21 25.5 2.894 3.844 156.1 6.2 17.2 2009 08 02 18 45.05 -21 42.3 2.932 3.849 150.7 7.4 17.2 2009 08 07 18 42.94 -21 58.3 2.975 3.854 145.4 8.6 17.2 2009 08 12 18 41.22 -22 13.6 3.025 3.859 140.2 9.7 17.3 2009 08 17 18 39.92 -22 28.0 3.080 3.864 135.1 10.7 17.3 2009 08 22 18 39.05 -22 41.6 3.139 3.869 130.1 11.5 17.4 2009 08 27 18 38.64 -22 54.3 3.203 3.874 125.2 12.3 17.4 2009 09 01 18 38.68 -23 06.1 3.271 3.879 120.3 13.0 17.5 2009 09 06 18 39.18 -23 16.9 3.341 3.884 115.6 13.5 17.5 2009 09 11 18 40.13 -23 26.9 3.415 3.890 110.9 14.0 17.6 2009 09 16 18 41.52 -23 35.9 3.490 3.895 106.4 14.3 17.6 2009 09 21 18 43.34 -23 44.0 3.568 3.901 101.9 14.6 17.7 2009 09 26 18 45.57 -23 51.1 3.647 3.906 97.5 14.7 17.7 2009 10 01 18 48.19 -23 57.3 3.726 3.912 93.2 14.8 17.8 2009 10 06 18 51.17 -24 02.4 3.806 3.917 88.9 14.8 17.8 2009 10 11 18 54.50 -24 06.5 3.886 3.923 84.7 14.7 17.9 2009 10 16 18 58.16 -24 09.6 3.966 3.929 80.6 14.5 17.9 2009 10 21 19 02.13 -24 11.7 4.045 3.934 76.6 14.2 18.0 2009 10 26 19 06.38 -24 12.6 4.122 3.940 72.5 13.9 18.0 2009 10 31 19 10.90 -24 12.5 4.199 3.946 68.6 13.5 18.1 2009 11 05 19 15.65 -24 11.2 4.273 3.952 64.7 13.1 18.1 2009 11 10 19 20.63 -24 08.8 4.346 3.958 60.8 12.6 18.2 2009 11 15 19 25.80 -24 05.3 4.416 3.964 56.9 12.1 18.2 2009 11 20 19 31.16 -24 00.7 4.483 3.970 53.1 11.5 18.2 2009 11 25 19 36.69 -23 54.8 4.548 3.976 49.3 10.9 18.3 2009 11 30 19 42.36 -23 47.9 4.609 3.982 45.6 10.2 18.3 2009 12 05 19 48.15 -23 39.8 4.667 3.988 41.9 9.5 18.4 2009 12 10 19 54.06 -23 30.7 4.722 3.994 38.2 8.8 18.4 2009 12 15 20 00.06 -23 20.4 4.773 4.000 34.5 8.0 18.4 2009 12 20 20 06.15 -23 09.1 4.820 4.007 30.8 7.2 18.4 2009 12 25 20 12.30 -22 56.8 4.863 4.013 27.2 6.4 18.5 2009 12 30 20 18.50 -22 43.5 4.901 4.019 23.6 5.6 18.5 2010 01 04 20 24.74 -22 29.3 4.936 4.026 20.0 4.8 18.5 2010 01 09 20 31.01 -22 14.2 4.966 4.032 16.4 4.0 18.5 2010 01 14 20 37.29 -21 58.3 4.991 4.039 12.9 3.1 18.6 2010 01 19 20 43.57 -21 41.6 5.012 4.045 9.5 2.3 18.6 2010 01 24 20 49.84 -21 24.3 5.028 4.051 6.4 1.5 18.6 2010 01 29 20 56.09 -21 06.4 5.040 4.058 4.0 1.0 18.6 2010 02 03 21 02.31 -20 48.0 5.047 4.065 4.2 1.0 18.6 2010 02 08 21 08.48 -20 29.1 5.049 4.071 6.7 1.6 18.6 2010 02 13 21 14.61 -20 09.9 5.047 4.078 9.9 2.4 18.6 2010 02 18 21 20.67 -19 50.5 5.040 4.084 13.3 3.2 18.6 2010 02 23 21 26.67 -19 30.9 5.028 4.091 16.8 4.0 18.6 2010 02 28 21 32.58 -19 11.2 5.012 4.098 20.3 4.8 18.6 2010 03 05 21 38.41 -18 51.6 4.992 4.105 23.9 5.6 18.6 2010 03 10 21 44.14 -18 32.2 4.967 4.111 27.4 6.4 18.6 2010 03 15 21 49.76 -18 13.0 4.938 4.118 31.0 7.2 18.6 2010 03 20 21 55.27 -17 54.3 4.905 4.125 34.6 7.9 18.6 2010 03 25 22 00.66 -17 36.0 4.868 4.132 38.3 8.6 18.6 2010 03 30 22 05.91 -17 18.4 4.828 4.139 41.9 9.3 18.6 2010 04 04 22 11.01 -17 01.5 4.783 4.145 45.6 9.9 18.6 2010 04 09 22 15.97 -16 45.4 4.736 4.152 49.3 10.5 18.6 2010 04 14 22 20.77 -16 30.4 4.685 4.159 53.0 11.1 18.5 2010 04 19 22 25.39 -16 16.5 4.631 4.166 56.8 11.6 18.5 2010 04 24 22 29.83 -16 03.8 4.575 4.173 60.6 12.1 18.5 2010 04 29 22 34.07 -15 52.5 4.516 4.180 64.4 12.5 18.5 2010 05 04 22 38.10 -15 42.8 4.455 4.187 68.2 12.9 18.5 2010 05 09 22 41.92 -15 34.6 4.392 4.194 72.2 13.2 18.4 2010 05 14 22 45.50 -15 28.2 4.327 4.201 76.1 13.5 18.4 2010 05 19 22 48.83 -15 23.7 4.262 4.208 80.1 13.7 18.4 2010 05 24 22 51.90 -15 21.2 4.195 4.215 84.2 13.8 18.4 2010 05 29 22 54.70 -15 20.8 4.128 4.222 88.3 13.9 18.3 2010 06 03 22 57.21 -15 22.5 4.061 4.229 92.5 13.9 18.3 2010 06 08 22 59.41 -15 26.6 3.994 4.236 96.8 13.8 18.3 2010 06 13 23 01.30 -15 33.0 3.928 4.243 101.2 13.6 18.2 2010 06 18 23 02.85 -15 41.9 3.863 4.251 105.6 13.3 18.2 2010 06 23 23 04.06 -15 53.1 3.800 4.258 110.1 13.0 18.2 2010 06 28 23 04.91 -16 06.7 3.739 4.265 114.7 12.5 18.2 2010 07 03 23 05.40 -16 22.7 3.681 4.272 119.3 12.0 18.1 2010 07 08 23 05.52 -16 40.9 3.626 4.279 124.0 11.4 18.1 2010 07 13 23 05.26 -17 01.3 3.575 4.286 128.8 10.6 18.1

Back to Observable Comets


Valid HTML 4.01!